Flag for France Weather past 2 weeks in Brest, France

45 °F


Feels Like: 42 °F
Forecast: 51 / 63 °F
Wind: 5 mph from Southeast

Location: Brest Airport

Current Time: Oct 9, 2015 at 8:46:23 AM

Latest Report: Oct 9, 2015 at 8:00 AM

Visibility: 10 mi

Pressure: 30.12 "Hg

Humidity: 87%

Dew point: 41 °F

Location of BrestLocation

Historic Weather in Brest — Graph


Brest temperature yesterday

Maximum temperature yesterday: 64 °F (at 3:30 PM)
Minimum temperature yesterday: 45 °F (at 5:30 AM)
Average temperature yesterday: 53 °F

Past Weeks' High & Low Weather Summary

High70 °F (Sep 28, 3:00 PM)100% (Sep 25, 1:00 AM)30.42 "Hg (Sep 25, 1:00 AM)
Low45 °F (Sep 25, 6:30 AM)38% (Sep 28, 3:00 PM)29.30 "Hg (Oct 6, 5:30 AM)
Average56 °F80%30.08 "Hg
* Reported Sep 24 7:00 AM — Oct 9 7:30 AM, Brest, Weather by CustomWeather, © 2015

Note: Actual official high and low records may vary slightly from our data, if they occured in-between our weather recording intervals... More about our weather records


Brest weather history for previous 24 hours

Time TempWeatherWind HumidityBarometerVisibility
7:30 AM
Fri, Oct 9
46 °FClear.5 mph87%30.12 "Hg10 mi
7:00 AM48 °FPassing clouds.6 mph87%30.12 "HgN/A
6:30 AM46 °FClear.6 mph93%30.12 "Hg10 mi
6:00 AM46 °FClear.6 mph93%30.12 "Hg10 mi
5:30 AM46 °FClear.6 mph93%30.12 "Hg10 mi
5:00 AM46 °FClear.6 mph93%30.12 "Hg10 mi
4:30 AM48 °FClear.6 mph87%30.15 "Hg10 mi
4:00 AM48 °FClear.7 mph94%30.15 "Hg10 mi
3:00 AM48 °FClear.7 mph94%30.15 "Hg10 mi
2:30 AM48 °FClear.7 mph94%30.15 "Hg10 mi
2:00 AM48 °FClear.7 mph94%30.15 "Hg10 mi
1:00 AM46 °FClear.5 mph93%30.18 "Hg10 mi
12:04 AM48 °FClear.3 mph94%30.18 "Hg10 mi
11:30 PM
Thu, Oct 8
48 °FClear.3 mph94%30.18 "Hg10 mi
11:00 PM48 °FClear.5 mph94%30.18 "Hg10 mi
10:30 PM50 °FClear.5 mph94%30.18 "Hg10 mi
10:00 PM50 °FClear.5 mph94%30.18 "Hg10 mi
9:30 PM52 °FPassing clouds.5 mph88%30.18 "HgN/A
9:00 PM52 °FPassing clouds.5 mph88%30.18 "HgN/A
8:30 PM52 °FPassing clouds.6 mph88%30.18 "HgN/A
8:00 PM54 °FPassing clouds.5 mph88%30.18 "HgN/A
7:30 PM55 °FPassing clouds.5 mph82%30.15 "HgN/A
7:00 PM55 °FPassing clouds.5 mph82%30.18 "HgN/A
6:30 PM57 °FPassing clouds.6 mph82%30.15 "HgN/A
6:00 PM59 °FScattered clouds.7 mph77%30.15 "HgN/A
5:30 PM61 °FScattered clouds.7 mph72%30.15 "HgN/A
5:00 PM61 °FScattered clouds.6 mph77%30.15 "HgN/A
4:30 PM63 °FScattered clouds.5 mph59%30.15 "HgN/A
4:00 PM64 °FScattered clouds.5 mph56%30.15 "HgN/A
3:30 PM64 °FScattered clouds.3 mph56%30.18 "HgN/A
3:00 PM63 °FScattered clouds.3 mph64%30.18 "HgN/A
2:30 PM63 °FScattered clouds.5 mph59%30.18 "HgN/A
2:00 PM63 °FPassing clouds.6 mph59%30.18 "HgN/A
1:30 PM63 °FPassing clouds.5 mph64%30.18 "HgN/A
1:00 PM61 °FPassing clouds.5 mph68%30.18 "HgN/A
12:30 PM61 °FPassing clouds.2 mph68%30.18 "HgN/A
12:00 PM59 °FPassing clouds.2 mph72%30.18 "HgN/A
11:30 AM57 °FPassing clouds.1 mph77%30.18 "HgN/A
11:00 AM55 °FClear.2 mph88%30.18 "Hg4 mi
10:30 AM54 °FClear.1 mph100%30.15 "Hg4 mi
10:00 AM52 °FCool.No wind100%30.15 "Hg1 mi
9:42 AM50 °FCool.No wind94%30.15 "Hg1 mi
9:30 AM48 °FFog.3 mph94%30.15 "Hg0 mi
9:00 AM45 °FFog.2 mph100%30.15 "Hg0 mi
8:30 AM45 °FFog.No wind93%30.12 "Hg0 mi
8:00 AM45 °FFog.No wind93%30.12 "Hg1 mi
Weather by CustomWeather, © 2015

See weather overviewHow to use our weather pages